Voltar ao catálogo

DELTA 1 DEB

AtivoPO
NORAD 21362·DEBRIS·🇺🇸 United States

Lançado Jun 12, 1975 de Vandenberg Space Force Base

Loading…

Próximas Passagens (próximas 24 horas)

TLE

AtualizadoSource: Space-Track

Época: Sep 14, 2026, 07:08 UTC

1 21362U 75052CG  26257.29752164  .00006441  00000-0  23100-1 0  9993
2 21362  99.4223   8.1741 0590381  16.2059   7.9855 12.48468953582958

Acompanhe DELTA 1 DEB em tempo real com AllMySat

Download on the App Store